Location: Grasslands National Park East Block
(49.0708°N, 106.5295°W)
Time: 16:24:35
(UTC-06:00)

SR - Pass Details

Date: 29 October 2019
Orbit: 574 x 882 km, 66.7° (Epoch: 17 November)

Event Time Altitude Azimuth Distance (km) Brightness Sun altitude
Exits shadow 07:03:15 - 305° (NW) 2,793 ? -8.0°
Reaches altitude 10° 07:04:09 10° 299° (WNW) 2,544 ? -7.8°
Maximum altitude 07:08:21 20° 254° (WSW) 1,906 ? -7.2°
Drops below altitude 10° 07:12:29 10° 209° (SSW) 2,509 ? -6.5°
Sets 07:15:32 0° 193° (SSW) 3,412 ? -6.0°
